Info for pilots

Image

Airfield Info:

EBUL
N51 08.7 - E003 28.6
ELEV 95' / 29m
RWY 07 / 25
799m * 45m (CIV) - 2980m (MIL)
Ursel Radio 135.125
Tel Aero Club Brugge : +32(0)9 374 25 75
Tel Vliegclub Ursel : +32(0)9 374 12 90

Operational Hours
FRI: 14h00LT - SS+30 MIN
SAT, SUN and HOL: TKOF and LDG: 10h00LT - SS+30 MIN
After 20h00LT to SS+30 MIN: only LDG allowed (PN)

Local Traffic Regulations
The use of the AD is subject to PPR from the OPR;
AD given in concession to the CIV club outside MIL ACT;
Solo training flights can only be performed after two reconnaissance flights with instructor. The solo training flight must be performed within six weeks after the first reconnaissance flight;
Jet aircraft operations not allowed.
Obstacles: trees between 10M AGL and 22M AGL, caution when crosswind:
North of the RWY, 75M from CL, along the whole length of the RWY;
South of the RWY, 75M from CL, and at THR RWY 25 from THR RWY 07 to 140M east of THR RWY 07

Image

Image

Watch out!

Flight Procedures
RWY 07 and 25 left hand circuit, 1.200 FT QNH

Taxi procedures:
RWY 07 (TKOF):
taxi on the north side of the RWY to the HLDG position of RWY 07

RWY 07 (LDG):
after landing roll out to the second intersection (THR RWY 25), turn left, turn left again, taxi via the TWY to the first intersection, turn left, cross the RWY (check for landing ACFT), taxi on the south side of the RWY to the AD reporting office

RWY 25 (TKOF):
taxi on the north side of the first intersection, turn left, next turn right, taxi via the TWY to the second intersection, turn right, taxi to the HLDG of RWY 25

RWY 25 (LDG):
after landing roll out to the end of the RWY, taxi on the south side of the RWY to the AD reporting office.

Image

Current Metars - Auto refresh

EBOS - Oostende
2018/05/22 05:20 EBOS 220520Z 36005KT 320V030 9999 FEW035TCU 15/11 Q1012 NOSIG


EBAW - Antwerpen
2018/05/22 05:20 EBAW 220520Z 06003KT 040V110 CAVOK 14/12 Q1012 NOSIG


EBBR - Brussel
Warning: file_get_contents(http://tgftp.nws.noaa.gov/data/observations/metar/stations/EBBR.TXT): failed to open stream: HTTP request failed! HTTP/1.1 404 Not Found in /var/www/vhosts/acbadmin/public_html/metars/getmetar_ebbr.php on line 2

Source : NOAA.GOV

Current TAFs - Auto refresh

EBOS - Oostende
2018/05/22 06:30 TAF EBOS 220510Z 2206/2312 36008KT 9999 FEW045TCU TEMPO 2305/2308 4000 RA BKN012

EBAW - Antwerpen
2018/05/22 06:30 TAF EBAW 220510Z 2206/2215 02003KT 8000 FEW040TCU PROB40 TEMPO 2214/2215 VRB15G25KT 3000 SHRA TSRAGR

EBBR - Brussel
2018/05/22 06:31 TAF EBBR 220510Z 2206/2312 33005KT 8000 FEW045TCU PROB40 TEMPO 2214/2222 VRB15G25KT 3000 SHRA TSRAGR TEMPO 2305/2312 4000 RA BKN009

Source : NOAA.GOV
Image

Webcam

Direction runway 07 :